This is the latest recevied weather packets stored in our database for station/object OK5TVR-14. If no packets are shown the sender has not sent any weather packets the latest 10 day(s).
| Time | Temp. | Humidity | Pressure | Rain* | Wind** | Luminosity | Snow |
|---|---|---|---|---|---|---|---|
| 1788082913 | 24.44° C | 54% | 1010.3 hPa | 0 mm | - | 0 W/m² | - |
| 1788082013 | 24.44° C | 55% | 1010.3 hPa | 0 mm | - | 0 W/m² | - |
| 1788081113 | 23.89° C | 56% | 1010.5 hPa | 0 mm | - | 0 W/m² | - |
| 1788080213 | 23.33° C | 57% | 1010.7 hPa | 0 mm | - | 0 W/m² | - |
| 1788079313 | 22.78° C | 58% | 1010.7 hPa | 0 mm | - | 0 W/m² | - |
| 1788078413 | 22.78° C | 59% | 1010.6 hPa | 0 mm | - | 0 W/m² | - |
| 1788077513 | 21.67° C | 60% | 1010.7 hPa | 0 mm | - | 0 W/m² | - |
| 1788076613 | 21.11° C | 62% | 1010.9 hPa | 0 mm | - | 0 W/m² | - |
| 1788075713 | 20.56° C | 63% | 1011 hPa | 0 mm | - | 0 W/m² | - |
| 1788074813 | 20.56° C | 63% | 1011 hPa | 0 mm | - | 0 W/m² | - |
| 1788073913 | 20° C | 65% | 1011.2 hPa | 0 mm | - | 0 W/m² | - |
| 1788073013 | 19.44° C | 66% | 1011.2 hPa | 0 mm | - | 0 W/m² | - |
| 1788072113 | 18.89° C | 68% | 1011.1 hPa | 0 mm | - | 0 W/m² | - |
| 1788071213 | 17.78° C | 69% | 1011.2 hPa | 0 mm | - | 0 W/m² | - |
| 1788070313 | 17.78° C | 70% | 1011.3 hPa | 0 mm | - | 0 W/m² | - |
| 1788069413 | 17.22° C | 70% | 1011.2 hPa | 0 mm | - | 0 W/m² | - |
| 1788068513 | 17.22° C | 70% | 1011.1 hPa | 0 mm | - | 0 W/m² | - |
| 1788067613 | 17.22° C | 71% | 1011.2 hPa | 0 mm | - | 0 W/m² | - |
| 1788066713 | 16.67° C | 72% | 1011.2 hPa | 0 mm | - | 0 W/m² | - |
| 1788065813 | 16.67° C | 72% | 1011.1 hPa | 0 mm | - | 0 W/m² | - |
| 1788064913 | 16.67° C | 72% | 1011.1 hPa | 0 mm | - | 0 W/m² | - |
| 1788064013 | 16.67° C | 72% | 1010.8 hPa | 0 mm | - | 0 W/m² | - |
| 1788063113 | 17.22° C | 71% | 1010.9 hPa | 0 mm | - | 0 W/m² | - |
| 1788062213 | 17.22° C | 71% | 1010.9 hPa | 0 mm | - | 0 W/m² | - |
* Rain latest hour (hover to see other rain measurements)
** Current wind speed in m/s (hover to see current wind gust speed)